Location: Bannatyne
(13.0833°N, 59.5333°W)
Time: 17:25:21
(UTC+00:00)

BREEZE-M DEB (TANK) - Pass Details

Date: 18 October 2019
Orbit: 423 x 13861 km, 45.9° (Epoch: 16 November)

Event Time Altitude Azimuth Distance (km) Brightness Sun altitude
Rises 22:23:02 0° 220° (SW) 9,794 9.4 -11.8°
Reaches altitude 10° 22:32:26 10° 220° (SW) 6,605 8.5 -14.1°
Maximum altitude 22:46:56 80° 135° (SE) 1,142 3.7 -17.6°
Enters shadow 22:49:45 26° 50° (NE) 1,526 4.1 -18.2°
